Vorticity
3 3 7 13 17 19 20 20 21 20 17 12 7 6 6 6 5 7 9 10 4 12 11 9 9 8 9 7 2 4 3 6 8 9 8 6 -1 8 8 6 5 6 1 1 6
5 4 5 -1 -0 -0 1 4 2 7 12 22 28 18 8 7 7 3 12 9 8 6 13 10 9 11 10 13 5 2 6 7 1 9 13 13 -2 3 2 4 6 7 11 -1 8
6 5 4 5 0 4 1 -4 -3 -3 -2 -5 5 23 30 11 10 22 12 11 11 10 7 13 13 14 6 2 9 2 2 -4 2 5 12 4 4 2 6 4 2 4 -7 -3 9
9 9 9 8 8 8 5 4 4 6 5 3 4 -2 6 33 10 3 12 16 15 14 11 8 7 5 3 8 1 3 -0 10 2 2 16 -2 5 2 2 4 13 10 -0 9 9
7 7 8 8 8 7 7 8 7 6 6 4 5 4 -1 -7 31 7 -10 3 13 20 21 10 11 6 5 5 10 -1 11 3 8 9 -1 5 3 2 4 10 3 -4 17 8 11
6 7 7 7 7 7 7 6 7 7 7 6 7 7 7 2 2 51 8 8 -5 12 19 8 12 8 6 6 -2 19 6 14 6 2 10 5 5 8 2 12 5 -1 11 9 10
7 8 8 8 8 8 8 8 8 8 8 8 7 6 5 15 -0 33 17 12 11 2 -0 11 11 14 13 -6 21 3 11 -8 13 11 7 7 6 6 19 6 10 10 6 7 8
9 8 8 9 9 9 10 10 10 10 10 10 8 6 4 17 4 23 45 6 16 14 6 4 5 5 10 4 -13 17 8 4 12 13 8 8 2 8 40 12 6 6 -1 7 7
6 7 7 7 8 8 9 9 9 10 11 12 12 10 27 9 6 24 51 2 6 12 -2 7 -15 10 10 7 4 11 3 10 5 18 9 10 5 42 -1 3 10 8 5 -2 13
7 7 7 7 8 7 7 7 8 6 13 12 26 24 21 2 -9 6 3 36 13 8 -0 14 -5 6 6 3 3 -2 13 11 8 20 1 4 1 11 -1 11 7 10 6 -2 8
8 8 8 7 7 6 7 6 19 28 -7 7 0 5 17 -2 17 12 17 15 25 41 -16 12 11 1 5 7 -1 1 -1 10 9 22 12 3 8 7 4 3 9 8 8 5 4
9 9 8 8 7 6 7 8 7 3 13 23 28 24 26 15 -3 -9 2 8 10 20 -10 14 8 11 2 7 8 5 -0 1 10 10 10 5 8 10 8 6 8 10 9 7 -16
9 9 9 9 8 8 7 8 6 6 12 43 14 14 7 14 37 21 5 15 3 32 4 4 8 19 9 9 9 7 8 4 4 16 5 13 5 14 9 6 5 3 5 9 -1
9 9 8 10 11 10 9 7 9 4 36 16 10 7 7 19 21 47 15 -4 9 22 -11 45 5 -32 36 1 8 7 10 9 0 2 6 28 12 13 19 24 3 3 14 9 9
9 9 8 9 8 10 2 10 10 15 16 8 9 -2 -1 13 6 7 21 4 5 -5 -1 5 21 25 -14 23 2 2 5 14 11 14 4 8 -1 5 17 14 11 18 12 13 9
9 9 9 9 10 9 10 12 8 10 10 5 8 7 -1 0 2 4 39 16 25 1 -16 18 -27 16 36 -1 9 13 7 21 9 10 18 6 1 21 32 29 31 19 12 9 16
10 9 9 9 12 12 12 9 6 4 -7 22 8 7 -3 11 28 12 18 14 -25 30 47 -12 17 13 3 34 12 3 12 12 20 27 -2 8 22 -3 1 -4 -13 18 7 12 24
9 9 9 10 11 14 13 7 0 1 16 -32 -4 -4 8 16 24 20 6 17 -6 -1 -8 37 41 -0 28 15 10 28 11 -47 1 15 19 10 15 15 28 19 13 7 3 11 22
10 11 10 11 14 12 8 14 -13 27 29 9 4 15 18 6 5 18 12 14 22 19 -25 20 -0 20 10 9 13 2 -1 -4 -39 2 33 22 -17 -4 -5 2 4 13 15 17 20
12 13 11 13 18 12 6 -9 13 13 2 -1 5 6 3 -0 18 14 15 9 24 20 44 4 1 25 20 2 22 0 34 11 6 20 7 21 -1 -2 26 20 1 13 5 17 22
12 10 14 26 17 8 -2 -4 30 5 7 9 11 5 -2 3 -0 19 12 4 11 0 14 26 -18 -21 19 4 19 1 8 19 4 -29 5 2 17 38 8 -8 20 1 9 20 12
13 6 2 25 13 10 5 8 8 -0 15 7 -1 2 4 0 2 7 3 11 22 19 19 35 -3 23 32 2 20 6 12 17 -10 26 16 -21 2 16 12 3 2 -1 -1 9 16
6 11 10 15 2 1 5 18 4 1 15 11 11 11 6 7 10 25 8 4 10 -23 -15 12 38 3 22 32 30 7 11 4 1 -6 3 8 15 -8 19 -19 -4 8 4 8 6
0 6 22 10 3 -5 15 2 12 9 11 4 2 14 4 7 8 -15 -13 -9 6 3 28 12 18 21 -23 1 5 17 25 14 13 14 9 -14 10 -14 -14 4 13 -9 7 7 9
3 5 5 36 12 10 -2 -0 15 6 4 27 4 8 2 10 11 10 5 2 10 21 -8 19 24 -3 18 6 22 18 18 16 14 7 8 17 16 12 18 9 8 16 -11 4 7
6 -2 14 -10 -1 35 14 8 -5 10 33 19 9 8 18 10 6 10 19 -8 13 6 15 5 5 23 41 8 1 15 6 -8 -7 6 11 11 8 7 4 9 6 10 21 18 8
11 6 -15 16 7 7 14 18 8 2 6 8 5 12 3 8 9 21 13 7 -8 -8 5 9 7 -4 23 18 17 20 4 12 31 11 13 6 23 32 12 15 11 10 8 4 -5
Height
3110 3108 3107 3105 3105 3103 3103 3102 3101 3100 3099 3099 3099 3100 3100 3100 3101 3101 3101 3101 3101 3102 3101 3104 3106 3108 3108 3110 3116 3119 3118 3112 3111 3110 3110 3110 3110 3110 3110 3109 3109 3107 3105 3103 3100
3108 3107 3105 3103 3102 3101 3100 3099 3098 3096 3094 3093 3093 3092 3093 3092 3095 3097 3094 3096 3096 3097 3097 3098 3102 3104 3104 3106 3111 3112 3112 3108 3108 3108 3107 3107 3107 3108 3107 3106 3106 3104 3100 3098 3096
3103 3103 3103 3101 3099 3098 3097 3096 3094 3093 3091 3089 3088 3087 3086 3086 3089 3088 3089 3089 3090 3091 3093 3095 3098 3101 3100 3105 3106 3106 3103 3105 3105 3105 3104 3104 3104 3104 3103 3103 3103 3100 3099 3094 3092
3098 3098 3098 3097 3094 3092 3091 3091 3089 3089 3087 3085 3084 3084 3083 3081 3090 3081 3084 3084 3085 3086 3087 3089 3094 3097 3097 3098 3102 3102 3101 3101 3101 3102 3100 3100 3100 3100 3099 3099 3098 3095 3093 3090 3087
3093 3093 3093 3092 3090 3088 3087 3086 3084 3083 3081 3080 3079 3078 3079 3077 3077 3081 3080 3078 3079 3080 3082 3084 3089 3093 3093 3095 3098 3097 3097 3098 3098 3097 3096 3096 3095 3095 3094 3095 3094 3090 3088 3086 3084
3089 3089 3088 3087 3086 3084 3082 3080 3078 3078 3077 3076 3074 3072 3070 3071 3072 3071 3071 3074 3075 3076 3077 3081 3086 3090 3091 3091 3093 3094 3093 3092 3093 3093 3092 3091 3090 3091 3089 3090 3090 3086 3084 3082 3081
3085 3084 3084 3082 3081 3079 3078 3076 3073 3073 3072 3071 3068 3065 3061 3068 3065 3064 3064 3066 3066 3070 3073 3078 3084 3086 3088 3087 3088 3089 3088 3087 3086 3087 3087 3088 3085 3085 3084 3085 3085 3083 3081 3079 3077
3079 3078 3077 3077 3076 3073 3072 3070 3068 3066 3066 3065 3062 3059 3053 3060 3057 3054 3054 3058 3059 3063 3067 3069 3076 3078 3081 3084 3083 3083 3084 3081 3080 3082 3082 3084 3078 3081 3078 3080 3081 3080 3079 3076 3074
3073 3073 3072 3071 3069 3067 3066 3064 3062 3060 3060 3058 3056 3055 3049 3048 3049 3047 3046 3049 3052 3057 3060 3065 3068 3070 3076 3077 3078 3077 3075 3074 3075 3076 3078 3078 3076 3076 3076 3077 3077 3078 3076 3073 3071
3066 3066 3065 3065 3063 3061 3061 3059 3056 3053 3054 3052 3050 3051 3048 3046 3045 3045 3045 3046 3049 3052 3054 3060 3064 3065 3067 3070 3066 3069 3069 3071 3070 3071 3072 3073 3072 3073 3073 3073 3073 3074 3074 3071 3068
3060 3060 3058 3059 3057 3055 3056 3055 3053 3048 3049 3049 3047 3038 3045 3042 3039 3043 3041 3042 3045 3046 3048 3057 3059 3053 3060 3064 3067 3067 3064 3064 3066 3067 3068 3068 3068 3068 3069 3068 3069 3070 3071 3069 3066
3053 3052 3052 3053 3052 3051 3050 3048 3052 3050 3040 3041 3037 3034 3033 3033 3031 3036 3038 3040 3038 3039 3046 3053 3044 3054 3060 3062 3064 3064 3063 3063 3064 3064 3065 3065 3063 3063 3064 3064 3064 3065 3066 3066 3063
3047 3046 3046 3048 3047 3047 3046 3045 3046 3044 3039 3035 3032 3031 3030 3029 3026 3030 3033 3034 3034 3035 3039 3041 3047 3051 3053 3055 3057 3057 3058 3060 3061 3060 3062 3061 3058 3057 3058 3059 3059 3061 3062 3063 3061
3040 3040 3040 3043 3045 3043 3041 3043 3044 3043 3037 3035 3032 3029 3029 3026 3024 3023 3029 3031 3029 3032 3035 3037 3041 3045 3047 3048 3051 3050 3055 3057 3058 3059 3056 3055 3049 3049 3049 3050 3053 3054 3056 3058 3058
3034 3034 3034 3036 3038 3039 3039 3039 3041 3042 3038 3032 3030 3028 3028 3029 3027 3024 3024 3027 3027 3032 3033 3030 3037 3040 3041 3042 3047 3045 3053 3053 3055 3055 3054 3052 3050 3044 3044 3045 3047 3049 3050 3052 3054
3027 3027 3028 3029 3032 3034 3034 3036 3039 3045 3032 3031 3028 3028 3028 3028 3026 3024 3023 3027 3028 3027 3026 3023 3025 3031 3034 3039 3042 3045 3049 3050 3051 3051 3047 3047 3047 3039 3037 3039 3043 3045 3047 3048 3050
3019 3020 3021 3023 3026 3028 3030 3034 3042 3036 3031 3028 3027 3027 3028 3027 3024 3023 3021 3021 3022 3022 3021 3024 3020 3025 3028 3032 3036 3039 3044 3043 3044 3041 3038 3039 3040 3037 3036 3039 3042 3043 3044 3044 3045
3011 3013 3014 3017 3019 3023 3027 3033 3032 3025 3026 3024 3024 3024 3025 3023 3022 3021 3020 3019 3020 3020 3021 3019 3022 3020 3020 3024 3027 3030 3035 3030 3029 3030 3029 3032 3032 3032 3034 3037 3038 3040 3042 3042 3042
3004 3006 3007 3010 3014 3019 3023 3025 3020 3022 3022 3022 3022 3021 3021 3021 3020 3018 3017 3017 3017 3018 3019 3016 3015 3015 3015 3021 3024 3027 3025 3030 3029 3031 3024 3023 3029 3030 3032 3035 3036 3037 3038 3038 3038
2997 2999 2999 3004 3009 3014 3015 3012 3016 3017 3017 3019 3019 3020 3018 3017 3019 3017 3015 3013 3011 3014 3016 3010 3014 3010 3011 3017 3019 3018 3025 3027 3027 3028 3027 3021 3021 3021 3027 3031 3033 3035 3036 3036 3036
2993 2994 2996 2998 3004 3006 3002 3006 3009 3012 3015 3016 3016 3016 3017 3017 3017 3014 3011 3009 3007 3007 3008 3010 3014 3009 3010 3007 3012 3016 3015 3018 3022 3023 3021 3020 3020 3020 3025 3029 3031 3033 3034 3034 3033
2988 2990 2993 2994 2998 2996 2995 3002 3007 3006 3009 3010 3012 3013 3014 3014 3014 3013 3009 3007 3004 3003 3005 3007 3008 3005 3003 3004 3007 3010 3011 3013 3015 3017 3018 3020 3023 3022 3024 3027 3030 3032 3033 3032 3032
2982 2984 2988 2989 2989 2992 2995 2997 2999 3002 3003 3006 3007 3009 3011 3011 3011 3009 3007 3006 3004 3000 3003 3004 3005 3004 3002 3001 3002 3004 3007 3010 3014 3017 3020 3019 3018 3019 3023 3024 3027 3030 3031 3032 3032
2978 2979 2981 2982 2984 2988 2990 2991 2993 2995 2997 3000 3002 3004 3006 3006 3006 3006 3006 3003 3002 3000 3000 3001 3000 3000 2996 2996 2998 2999 3000 3004 3009 3012 3014 3015 3016 3017 3020 3023 3025 3027 3028 3030 3031
2970 2971 2975 2976 2978 2982 2985 2985 2987 2990 2992 2995 2998 2999 3001 3002 3001 3001 3004 3005 3003 2998 2997 2998 2996 2994 2995 2996 2995 2996 2998 3000 3003 3007 3009 3012 3013 3015 3017 3020 3022 3022 3024 3026 3028
2962 2967 2972 2972 2975 2977 2979 2980 2983 2986 2988 2990 2993 2995 2996 2997 2999 2999 3000 3000 3000 2998 2994 2997 2996 2992 2993 2994 2994 2995 2996 2999 3001 3004 3007 3009 3011 3013 3016 3016 3017 3018 3020 3021 3023
2958 2963 2966 2966 2970 2972 2972 2976 2979 2983 2984 2985 2988 2990 2991 2993 2992 2992 2992 2993 2995 2996 2996 2997 2997 2994 2991 2993 2995 2995 2994 2997 2999 3002 3004 3006 3008 3009 3012 3011 3013 3013 3013 3011 3013